sat.trackr.live / text

‹ back to catalog

TELEOS-2

NORAD 56310 · 2023-057C

PAYLOAD ACTIVE UNKNOWN

§ Identity

Operator
Country
SING
Launch date
2023-04-22
Launch site
SRILR
Launch vehicle
Mass (kg)
RCS (m²)

External: N2YO · Heavens-Above · Gunter

§ Orbital elements

Epoch: 2026-09-22T00:00:31.163616Z

Period
96.23 min
Inclination
9.9876°
Eccentricity
0.0000744
Mean motion
14.96406780 rev/d
Perigee alt
577.5 km
Apogee alt
578.5 km
Semi-major
6,956.1 km
B*
2.7514e-4
RAAN
219.2652°
Arg perigee
266.3125°
Mean anomaly
93.7003°
Rev number
18,732

§ Raw data

TELEOS-21 56310U 23057C   26265.00036069  .00003893  00000+0  27514-3 0  99912 56310   9.9876 219.2652 0000744 266.3125  93.7003 14.96406780187321

JSON: /api/v1/satellites/56310 · /tle

For live sub-satellite position, see the globe view (requires WebGL).

§ Visibility from observer

Set your observer location to see the next 7 days of passes ≥ 10°. The values pass through the URL so the page stays shareable.

No JS? Fill the form by hand. The geolocation button needs JavaScript.

§ Radio — SatNOGS DB

ModeDescriptionDownlinkUplink
FM Mode S 2.211 GHz

1 transmitter · refreshed weekly from db.satnogs.org